Regional Weather Roundup
Issued by NWS Green Bay, WI

Home | Current Version | Previous Version | Graphics & Text | Print | Product List | Glossary Off
Versions: 1 2 3 4 5 6 7 8 9 10 11 12 13 14 15 16 17 18 19 20 21 22 23 24 25 26 27 28 29 30 31 32 33 34 35 36 37 38 39 40 41 42 43 44 45 46 47 48 49 50

000
ASUS43 KGRB 252159
RWRGRB

NORTH-CENTRAL AND NORTHEAST WISCONSIN REGIONAL WEATHER ROUNDUP
NATIONAL WEATHER SERVICE GREEN BAY WI
500 PM CDT SAT APR 25 2015

WIZ005-009-010>012-018-019-252300-
NORTH CENTRAL WISCONSIN

CITY           SKY/WX    TMP DP  RH WIND       PRES   REMARKS
IRONWOOD       SUNNY     48  27  43 N13       29.91S
MANITOWISH WTR NOT AVBL
ARBOR VITAE    NOT AVBL
EAGLE RIVER    NOT AVBL
LAND O LAKES   NOT AVBL
RHINELANDER    SUNNY     55  15  20 E9G17     29.87S
PHILLIPS       NOT AVBL
ANTIGO         NOT AVBL
TOMAHAWK       NOT AVBL
MERRILL        NOT AVBL
$$

WIZ013-073-252300-
NORTHEAST WISCONSIN

CITY           SKY/WX    TMP DP  RH WIND       PRES   REMARKS
IRON MOUNTAIN  SUNNY     54  20  26 NE7G18    29.88R
MARINETTE      MOSUNNY   45  21  39 E14       29.91S
$$

WIZ017-030-035>037-045-252300-
CENTRAL WISCONSIN

CITY           SKY/WX    TMP DP  RH WIND       PRES   REMARKS
MEDFORD        NOT AVBL
WAUSAU         CLOUDY    57  16  20 E8G17     29.84R
MOSINEE        NOT AVBL
MARSHFIELD     MOSUNNY   58  18  21 E13G21    29.84S
WISC RAPIDS    MOSUNNY   55  15  20 E10       29.86S
STEVENS POINT  NOT AVBL
WAUPACA        NOT AVBL
SHAWANO        NOT AVBL
CLINTONVILLE   NOT AVBL
$$

WIZ038-039-048-051-252300-
FOX VALLEY

CITY           SKY/WX    TMP DP  RH WIND       PRES   REMARKS
NWS GREEN BAY  PTSUNNY   48  23  37 NE16      29.90R
APPLETON       PTSUNNY   48  10  21 NE14G21   29.88R
OSHKOSH        SUNNY     51  26  37 NE18      29.86R
FOND DU LAC    MOSUNNY   52  21  29 NE20      29.85R
$$

WIZ022-050-052-252300-
EAST CENTRAL WISCONSIN

CITY           SKY/WX    TMP DP  RH WIND       PRES   REMARKS
STURGEON BAY   MOSUNNY   46  12  25 E12       29.92F
MANITOWOC      NOT AVBL
SHEBOYGAN      SUNNY     48  22  35 NE17G28   29.85F
$$

LMZ563-521-522-541>543-252300-
LAKESHORE

STATION/POSITION TIME  TEMP    WIND        PRES    VSBY  WAVE
                       AIR SEA DIR/SP/G                  HT/PER
                 (UTC) (F)     (DEG/KT/KT) (MB)    (MI)  (FT/S)
SHEBOYGAN LKSHOR 2100   38      10/ 20/ 23 1012.1R
KEWAUNEE LKSHORE 2100   40      40/ 15/ 20 1011.6R
NORTHPORT PIER   2100   44      50/ 11/ 13 1012.9F
SISTER BAY LKSHO 2100   52     100/ 16/ 26   N/A
STURGEON BAY CG  2100   42      50/  5     1013.8      6   4
CHAMBERS ISLAND  2100   44      50/ 11/ 15 1013.2F
MENOMINEE LKSHOR 2100   40      20/ 10/ 12 1013.6F
$$



USA.gov is the U.S. government's official web portal to all federal, state and local government web resources and services.